DW7680 Weather Reports


time (UTC)temp
C
wind
direction
speed
KPH
gust
KPH
rain 1hr
cm
rain 24hr
cm
rain mn
cm
humidity
%
barometer
mb
20260831210058 27 65 12.9 27.4 0.00 0.00 0.00 30 1009.3
20260831204602 27 102 4.8 22.5 0.00 0.00 0.00 31 1009.6
20260831203133 27 82 16.1 27.4 0.00 0.00 0.00 33 1009.9
20260831201559 27 123 11.3 30.6 0.00 0.00 0.00 31 1009.9
20260831200100 27 99 14.5 29.0 0.00 0.00 0.00 30 1010.1
20260831200000 27 163 16.1 29.0 0.00 0.00 0.00 30 1010.1
20260831194605 27 77 16.1 35.4 0.00 0.00 0.00 29 1010.2
20260831193059 28 70 11.3 24.1 0.00 0.00 0.00 29 1010.3
20260831191559 28 123 12.9 25.7 0.00 0.00 0.00 26 1010.5
20260831190135 27 105 14.5 27.4 0.00 0.00 0.00 26 1010.5
20260831184558 28 204 4.8 22.5 0.00 0.00 0.00 25 1010.8
20260831183058 27 100 11.3 25.7 0.00 0.00 0.00 24 1010.9
20260831181604 27 48 8.0 20.9 0.00 0.00 0.00 23 1010.9
20260831180059 27 39 8.0 17.7 0.00 0.00 0.00 25 1011.1
20260831174600 27 67 12.9 25.7 0.00 0.00 0.00 29 1011.1
20260831173101 27 59 8.0 24.1 0.00 0.00 0.00 30 1011.2
20260831171606 27 53 3.2 20.9 0.00 0.00 0.00 29 1011.1
20260831170057 26 161 12.9 29.0 0.00 0.00 0.00 31 1011.2
20260831164603 26 111 4.8 19.3 0.00 0.00 0.00 32 1011.2
20260831163059 26 104 3.2 14.5 0.00 0.00 0.00 34 1011.1
20260831161603 26 113 6.4 16.1 0.00 0.00 0.00 37 1011.0
20260831160126 26 164 3.2 11.3 0.00 0.00 0.00 39 1011.0
20260831154606 25 116 1.6 4.8 0.00 0.00 0.00 42 1010.9
20260831153129 23 277 0.0 4.8 0.00 0.00 0.00 47 1011.0
20260831151559 22 249 3.2 6.4 0.00 0.00 0.00 50 1011.0
20260831150059 21 263 4.8 11.3 0.00 0.00 0.00 54 1011.0
20260831144606 20 274 4.8 9.7 0.00 0.00 0.00 59 1011.1
20260831143101 18 279 4.8 9.7 0.00 0.00 0.00 64 1011.2
20260831141558 16 263 3.2 9.7 0.00 0.00 0.00 70 1011.4
20260831140059 14 259 3.2 8.0 0.00 0.00 0.00 74 1011.4
20260831134605 13 306 3.2 11.3 0.00 0.00 0.00 74 1011.2
20260831133058 13 273 6.4 11.3 0.00 0.00 0.00 73 1011.3
20260831131603 14 238 4.8 6.4 0.00 0.00 0.00 71 1011.1
20260831130112 13 279 4.8 12.9 0.00 0.00 0.00 73 1010.9
20260831124602 13 279 4.8 9.7 0.00 0.00 0.00 72 1010.9
20260831123058 13 293 1.6 8.0 0.00 0.00 0.00 73 1010.5
20260831121558 13 327 4.8 16.1 0.00 0.00 0.00 74 1010.6
20260831120144 13 273 4.8 9.7 0.00 0.00 0.00 73 1010.6
20260831114559 13 304 4.8 12.9 0.00 0.00 0.00 73 1010.7
20260831113059 13 305 3.2 8.0 0.00 0.00 0.00 72 1010.7
20260831111602 13 271 3.2 16.1 0.00 0.00 0.00 71 1010.8
20260831110058 12 258 8.0 11.3 0.00 0.00 0.00 72 1011.1
20260831104559 12 257 4.8 11.3 0.00 0.00 0.00 72 1010.9
20260831103058 12 267 8.0 16.1 0.00 0.00 0.00 72 1010.7
20260831101611 12 271 6.4 12.9 0.00 0.00 0.00 73 1010.7
20260831100058 12 282 6.4 14.5 0.00 0.00 0.00 72 1010.9
20260831094608 12 301 4.8 12.9 0.00 0.00 0.00 72 1010.7
20260831093059 12 252 4.8 16.1 0.00 0.00 0.00 72 1010.9
20260831091604 12 280 4.8 9.7 0.00 0.00 0.00 72 1010.8
20260831090106 12 289 3.2 12.9 0.00 0.00 0.00 72 1010.9
20260831084559 12 260 4.8 12.9 0.00 0.00 0.00 72 1010.8
20260831083059 13 274 4.8 9.7 0.00 0.00 0.00 70 1010.8
20260831081601 13 254 4.8 12.9 0.00 0.00 0.00 70 1010.8
20260831080057 13 292 4.8 11.3 0.00 0.00 0.00 71 1010.8
20260831074557 13 250 3.2 11.3 0.00 0.00 0.00 70 1010.9
20260831073104 13 263 8.0 14.5 0.00 0.00 0.00 69 1010.9
20260831071605 13 256 6.4 16.1 0.00 0.00 0.00 69 1011.0
20260831070124 14 279 8.0 16.1 0.00 0.00 0.00 69 1010.9
20260831070002 14 279 8.0 16.1 0.00 0.00 0.00 69 1010.9
20260831064601 14 319 6.4 17.7 0.00 0.00 0.00 69 1011.0
20260831063102 14 295 4.8 9.7 0.00 0.00 0.00 70 1011.1
20260831061609 14 290 9.7 19.3 0.00 0.00 0.00 69 1011.3
20260831060109 15 289 4.8 12.9 0.00 0.00 0.00 68 1011.2
20260831060002 15 285 4.8 16.1 0.00 0.00 0.00 68 1011.2
20260831054604 15 270 4.8 11.3 0.00 0.00 0.00 69 1011.3
20260831053101 15 239 6.4 14.5 0.00 0.00 0.00 68 1011.4
20260831051620 15 267 6.4 12.9 0.00 0.00 0.00 70 1011.3
20260831050059 15 267 6.4 11.3 0.00 0.00 0.00 69 1011.4
20260831044601 15 298 4.8 9.7 0.00 0.00 0.00 69 1011.4
20260831043059 15 281 4.8 11.3 0.00 0.00 0.00 68 1011.5
20260831041559 16 290 3.2 9.7 0.00 0.00 0.00 64 1011.4
20260831040059 16 292 4.8 8.0 0.00 0.00 0.00 64 1011.3
20260831034558 17 278 4.8 12.9 0.00 0.00 0.00 65 1011.1
20260831033103 18 303 3.2 8.0 0.00 0.00 0.00 59 1010.9
20260831031559 18 277 3.2 6.4 0.00 0.00 0.00 57 1010.8
20260831030059 20 291 3.2 8.0 0.00 0.00 0.00 55 1010.6
20260831030001 20 291 3.2 8.0 0.00 0.00 0.00 55 1010.6
20260831024616 20 289 3.2 4.8 0.00 0.03 0.00 53 1010.3
20260831024501 20 289 1.6 4.8 0.00 0.03 0.00 53 1010.2
20260831023100 21 289 3.2 8.0 0.00 0.03 0.00 50 1010.1
20260831023000 21 304 3.2 8.0 0.00 0.03 0.00 50 1010.0
20260831021604 23 132 0.0 4.8 0.00 0.03 0.00 41 1009.9
20260831020100 23 132 0.0 4.8 0.00 0.03 0.00 40 1009.6
20260831014559 24 132 1.6 6.4 0.00 0.08 0.00 39 1009.4
20260831013102 24 132 0.0 3.2 0.00 0.08 0.00 38 1009.3
20260831011600 25 132 1.6 4.8 0.00 0.08 0.00 37 1009.3
20260831010130 25 114 1.6 6.4 0.00 0.08 0.00 36 1009.4
20260831004559 26 104 3.2 9.7 0.00 0.08 0.00 36 1009.2
20260831003059 26 98 0.0 6.4 0.00 0.08 0.00 35 1009.3
20260831001607 26 116 4.8 12.9 0.00 0.08 0.00 35 1009.4
20260831000059 26 72 3.2 12.9 0.00 0.08 0.00 35 1009.5
20260830234559 26 115 4.8 17.7 0.00 0.08 0.00 34 1009.7
20260830233059 26 91 9.7 17.7 0.00 0.08 0.00 34 1009.6
20260830231559 26 88 9.7 22.5 0.00 0.08 0.00 35 1009.7
20260830230058 27 209 4.8 17.7 0.00 0.08 0.00 33 1009.7
20260830230001 27 204 4.8 17.7 0.00 0.08 0.00 33 1009.7
20260830224607 27 200 3.2 17.7 0.00 0.30 0.00 32 1009.8
20260830223103 27 80 3.2 11.3 0.00 0.30 0.00 32 1009.8
20260830221601 27 132 6.4 14.5 0.00 0.30 0.00 33 1010.1
20260830220121 27 129 6.4 16.1 0.00 0.30 0.00 33 1010.5
20260830214603 27 199 3.2 8.0 0.00 0.30 0.00 33 1010.6
20260830213058 26 355 3.2 4.8 0.00 0.30 0.00 33 1010.7
20260830211603 26 71 0.0 14.5 0.00 0.30 0.00 36 1011.1